Location: Vegas de Matute
(40.7948°N, 4.2776°W)
Time: 22:11:47
(UTC+00:00)

Daily predictions for brighter satellites

Satellite Brightness Start Highest point End
(mag) Time Altitude Azimuth Time Altitude Azimuth Time Altitude Azimuth
H-2A R/B 2.5 18:35:06 10° NNE 18:39:01 37° E 18:42:50 10° SSE
Cosmos 1356 Rocket 3.8 18:34:51 10° SSW 18:39:05 74° W 18:43:24 10° N
Meteor 1-21 4.4 18:33:35 10° N 18:39:06 52° ENE 18:44:32 10° SSE
Cosmos 921 Rocket 3.2 18:35:04 10° NNW 18:39:21 74° WSW 18:43:32 10° S
Cosmos 1674 4.4 18:41:33 10° NE 18:43:41 15° ENE 18:45:48 10° ESE
Cosmos 1707 3.4 18:42:10 10° N 18:45:47 35° ENE 18:49:23 10° SE
CZ-4B R/B 3.9 18:40:27 10° S 18:45:47 60° WSW 18:51:17 10° NNW
H-2A R/B 2.6 18:42:33 10° S 18:47:28 64° WSW 18:52:35 10° NNW
IRS-1C Rocket 4.5 18:43:56 10° SE 18:48:50 42° ENE 18:53:46 10° N
CZ-4B R/B 2.4 18:49:17 10° NE 18:51:45 22° E 18:54:14 10° SSE
Atlas Centaur 2 4.0 18:45:56 10° SW 18:53:11 33° SSE 19:00:06 11° ESE
Okean-O 3.3 18:49:19 10° SE 18:53:17 34° ENE 18:57:16 10° N
CZ-3B R/B 3.0 18:43:48 10° NW 18:53:34 64° SW 18:56:45 10° SSE
SJ-11-01 4.4 18:49:28 10° S 18:54:09 82° WSW 18:58:50 10° NNW
BREEZE-M DEB (TANK) 4.2 18:48:04 10° WNW 18:54:30 35° SW 18:57:15 10° SSE
Cosmos 836 Rocket 4.5 18:50:13 10° NNW 18:55:31 73° ENE 19:00:48 10° SSE
USA 215 3.9 18:49:55 10° E 18:56:00 42° NNE 19:02:04 10° NW
Cosmos 2074 Rocket 4.0 18:52:59 10° S 18:59:07 64° E 19:05:20 10° NNE
COSMOS 2455 3.0 18:54:49 10° NNW 19:00:45 55° ENE 19:06:38 10° SE
USA 276 4.3 19:01:27 10° WNW 19:03:57 21° NNW 19:06:28 10° NE
Cosmos 1626 3.7 19:02:10 10° NNE 19:04:31 16° ENE 19:05:10 15° E
H-2A R/B 3.1 19:02:00 10° S 19:06:23 67° WSW 19:10:53 10° NNW
Cosmos 1975 Rocket 4.4 19:04:49 10° NNE 19:08:13 21° ENE 19:10:06 17° ESE
In-Cosmos 22 4.1 19:03:00 10° N 19:08:15 62° ENE 19:13:29 10° SSE
Cosmos 1340 2.7 19:05:01 10° N 19:08:48 86° W 19:12:33 10° S
MetOp-A 4.5 19:04:50 10° SE 19:09:52 44° ENE 19:14:56 10° N
HJ-1C 3.2 19:07:33 10° SSE 19:10:48 75° ENE 19:14:04 10° N
Cosmos 1346 Rocket 3.9 19:10:58 10° NNE 19:14:21 25° ENE 19:15:52 20° ESE
USA 186 3.2 19:15:19 18° ENE 19:15:19 18° ENE 19:17:15 10° NNE
CSL-04 Rocket 3.8 19:15:32 10° SE 19:20:40 51° ENE 19:25:55 10° N
Cosmos 1503 Rocket 4.3 19:18:03 10° SSW 19:23:14 71° WNW 19:28:26 10° NNE
Cosmos 1908 Rocket 3.5 19:19:29 10° S 19:23:57 88° E 19:28:27 10° N
NOSS 3-2 (A) 4.4 19:20:54 10° SSE 19:24:05 20° ESE 19:24:05 20° ESE
Okean O Rocket 4.1 19:23:17 10° SSW 19:26:48 23° W 19:30:19 10° NW
Cosmos 1378 Rocket 4.0 19:23:09 10° NNW 19:27:32 63° W 19:31:54 10° S
Geosat 4.4 19:22:58 10° NNE 19:27:59 68° WNW 19:32:57 10° SW
OBJECT-B 1.5 19:29:29 31° ENE 19:29:29 31° ENE 19:32:17 10° N
ATLAS CENTAUR R/B 1.7 19:24:49 10° NNW 19:29:30 67° NE 19:32:34 22° SE
Cosmos 1461 2.9 19:28:50 10° NW 19:32:48 69° WSW 19:35:39 18° SSE
Cosmos 1777 Rocket 3.9 19:29:23 10° S 19:34:32 62° ESE 19:39:43 10° NNE
YAOGAN 1 3.7 19:33:02 10° S 19:37:10 45° W 19:41:20 10° NNW
Cosmos 2082 Rocket 4.2 19:35:49 10° NW 19:40:35 28° WSW 19:45:19 10° SSW
Cosmos 1184 Rocket 4.0 19:39:57 10° N 19:41:54 27° NE 19:41:54 27° NE
Lacrosse 5 rocket 1.7 19:40:07 10° NW 19:44:36 55° NE 19:45:50 40° E
CZ-4 R/B 3.3 19:43:55 10° SSW 19:47:17 29° W 19:50:40 10° NW
SJ 16-02 1.3 19:43:30 10° S 19:47:51 60° ESE 19:52:14 10° NNE
ISS -1.1 19:47:09 10° NW 19:49:02 14° N 19:50:41 11° NNE
Cosmos 1295 Rocket 4.5 19:44:11 10° S 19:50:24 87° W 19:56:44 10° N
Cosmos 1315 Rocket 2.8 19:52:22 54° ESE 19:52:36 55° E 19:56:32 10° NNE
Cosmos 1943 Rocket 3.5 19:49:22 10° SW 19:54:36 41° WNW 19:59:55 10° N
SJ-6B 2.8 19:59:16 60° ESE 19:59:47 68° ENE 20:03:53 10° N
Cosmos 2369 Rocket 2.3 19:57:16 10° SSW 20:02:56 75° WNW 20:08:36 10° NNE
Sich 1 Rocket 3.9 20:05:16 49° ENE 20:05:16 49° ENE 20:09:01 10° NNE
SeaSat 1 2.3 20:05:08 51° SE 20:06:19 72° ENE 20:11:15 10° NNW
SL-14 R/B 4.1 20:02:47 10° N 20:05:30 37° NNE 20:05:30 37° NNE
EO 1 Delta rocket 4.1 20:07:04 49° ENE 20:07:07 49° ENE 20:12:10 10° N
Meteor 2-20 4.5 20:02:18 10° N 20:08:17 54° ENE 20:09:35 46° ESE
Cosmos 773 Rocket 4.3 20:03:43 10° NNW 20:08:58 68° WSW 20:11:57 26° S
Cosmos 1805 3.6 20:05:55 10° SSW 20:09:45 65° W 20:13:37 10° N
Helios 1A Rocket 3.6 20:11:44 41° NNE 20:11:44 41° NNE 20:14:43 10° N
SL-8 Rocket 3.9 20:09:51 18° S 20:14:30 66° E 20:20:45 10° NNE
Meteor 1-15 Rocket 4.1 20:12:08 10° S 20:17:42 88° E 20:23:19 10° N
USA 281 4.0 20:12:45 10° NE 20:16:37 32° ENE 20:16:37 32° ENE
Cosmos 1674 4.3 20:15:55 10° NNW 20:19:15 32° W 20:21:13 19° SW
CZ-4B R/B 4.4 20:21:45 10° NNW 20:23:38 15° WNW 20:25:33 10° WSW
Cosmos 1339 Rocket 4.3 20:19:29 10° N 20:25:42 79° E 20:27:07 55° SSE
Ariane Rocket 3.2 20:33:46 59° NNE 20:33:46 59° NNE 20:38:03 10° N
Meteor 1-22 Rocket 4.3 20:34:19 60° NE 20:34:19 60° NE 20:39:10 10° NNE
Meteor 2-20 Rocket 4.4 20:29:14 10° N 20:35:05 64° ENE 20:35:05 64° ENE
Cosmos 1656 Rocket 4.2 20:31:22 10° SW 20:36:51 57° WNW 20:42:18 10° NNE
Meteor 2-5 Rocket 3.6 20:31:18 10° N 20:36:33 75° NE 20:36:33 75° NE
Cosmos 1025 Rocket 3.7 20:33:43 10° NNW 20:37:08 51° NW 20:37:08 51° NW
USA 215 3.4 20:37:06 50° SSE 20:38:46 67° SW 20:45:18 10° NW
Cosmos 1626 3.9 20:36:32 10° NNW 20:39:42 29° W 20:39:42 29° W
Atlas Centaur 2 3.6 20:34:29 10° WSW 20:42:16 40° S 20:42:41 40° S
Resurs 01 Rocket 3.3 20:47:42 26° N 20:47:42 26° N 20:49:41 10° N
Cosmos 1538 Rocket 4.3 20:42:03 10° NNW 20:47:22 64° WSW 20:47:25 64° WSW
Cosmos 2366 rocket 4.1 20:56:09 60° SW 20:57:10 72° W 21:03:19 10° N
OBJECT-B 4.3 21:02:24 10° WNW 21:02:24 10° WNW 21:02:32 10° WNW
Cosmos 2218 Rocket 4.3 21:04:10 48° SW 21:05:35 60° W 21:11:42 10° N
FALCON 9 R/B 4.3 19:57:51 10° WSW 21:06:21 51° SSW 21:10:08 44° SSE
BREEZE-M DEB (TANK) 4.3 20:52:13 10° WNW 21:07:42 83° SSW 21:07:42 83° SSW
ATLAS CENTAUR R/B 4.2 21:05:14 10° WNW 21:07:55 15° WSW 21:08:43 14° WSW
Lacrosse 5 rocket 4.2 21:20:07 10° WNW 21:21:27 16° W 21:21:27 16° W
SJ 16-02 4.4 21:24:37 10° W 21:26:51 14° WNW 21:29:05 10° NNW
Cosmos 2297 Rocket 4.3 21:23:40 10° N 21:25:21 17° NNE 21:25:21 17° NNE
USA 281 4.4 21:57:23 10° N 22:03:18 37° NW 22:03:25 37° WNW
